Location: Ladrillo (historical)
(32.8195°N, 117.2231°W)
Time: 12:41:07
(UTC+00:00)

Courier 1B - All Passes

Search period start: 07 March 2021 00:00
Search period end: 17 March 2021 00:00
Orbit: 962 x 1209 km, 28.3° (Epoch: 06 March)

Date Brightness Start Highest point End Pass type
(mag) Time Alt. Az. Time Alt. Az. Time Alt. Az.
07 Mar - 12:20:29 10° SSW 12:25:33 23° SSE 12:30:29 10° ESE visible
07 Mar - 14:12:46 10° WSW 14:19:03 47° SSE 14:25:12 10° E daylight
07 Mar - 16:06:25 10° W 16:12:46 59° S 16:19:10 10° ESE daylight
07 Mar - 18:00:24 10° W 18:06:28 43° SSW 18:12:41 10° SE daylight
07 Mar - 19:55:26 10° WSW 19:59:56 19° SSW 20:04:34 10° SSE daylight
08 Mar - 11:27:37 10° SSW 11:31:57 18° SSE 11:36:09 10° ESE visible
08 Mar - 13:19:11 10° SW 13:25:24 40° SSE 13:31:25 10° E visible
08 Mar - 15:12:40 10° WSW 15:19:05 59° S 15:25:26 10° E daylight
08 Mar - 17:06:38 10° W 17:12:49 49° SSW 17:19:06 10° ESE daylight
08 Mar - 19:01:12 10° WSW 19:06:20 25° SSW 19:11:35 10° SSE daylight
09 Mar - 10:35:17 10° S 10:38:19 13° SSE 10:41:18 10° SE visible
09 Mar - 12:25:41 10° SW 12:31:46 34° SSE 12:37:35 10° E visible
09 Mar - 14:18:56 10° WSW 14:25:24 56° S 14:31:43 10° E daylight
09 Mar - 16:12:51 10° W 16:19:10 54° S 16:25:28 10° ESE daylight
09 Mar - 18:07:11 10° W 18:12:44 30° SSW 18:18:23 10° SE daylight
09 Mar - 20:05:05 10° SW 20:06:04 10° SSW 20:07:02 10° SSW daylight
10 Mar - 11:32:18 10° SW 11:38:07 28° SSE 11:43:39 10° ESE visible
10 Mar - 13:25:11 10° WSW 13:31:44 52° S 13:38:01 10° E visible
10 Mar - 15:19:04 10° W 15:25:29 58° S 15:31:49 10° ESE daylight
10 Mar - 17:13:15 10° W 17:19:07 37° SSW 17:25:02 10° SE daylight
10 Mar - 19:09:04 10° WSW 19:12:29 15° SSW 19:15:55 10° S daylight
11 Mar - 10:39:05 10° SSW 10:44:27 23° SSE 10:49:36 10° ESE visible
11 Mar - 12:31:28 10° WSW 12:38:03 46° SSE 12:44:18 10° E visible
11 Mar - 14:25:14 10° WSW 14:31:49 60° S 14:38:10 10° ESE daylight
11 Mar - 16:19:23 10° W 16:25:31 44° SSW 16:31:36 10° SE daylight
11 Mar - 18:14:27 10° WSW 18:18:54 20° SSW 18:23:25 10° SSE daylight
12 Mar - 09:46:09 10° SSW 09:50:46 18° SSE 09:55:14 10° ESE visible
12 Mar - 11:37:48 10° SW 11:44:21 40° SSE 11:50:33 10° E visible
12 Mar - 13:31:24 10° WSW 13:38:06 59° S 13:44:31 10° E visible
12 Mar - 15:25:31 10° W 15:31:52 50° SSW 15:38:05 10° ESE daylight
12 Mar - 17:20:11 10° WSW 17:25:21 25° SSW 17:30:30 10° SSE daylight
13 Mar - 08:53:45 10° S 08:57:05 13° SSE 09:00:20 10° ESE night (unlit)
13 Mar - 10:44:12 10° SW 10:50:38 34° SSE 10:56:43 10° E visible
13 Mar - 12:37:33 10° WSW 12:44:23 57° S 12:50:51 10° E visible
13 Mar - 14:31:38 10° W 14:38:12 56° S 14:44:32 10° ESE daylight
13 Mar - 16:26:06 10° W 16:31:46 32° SSW 16:37:22 10° SE daylight
13 Mar - 18:23:43 10° SW 18:25:01 11° SSW 18:26:20 10° SSW daylight
14 Mar - 09:50:46 10° SSW 09:56:55 29° SSE 10:02:46 10° E visible
14 Mar - 11:43:42 10° WSW 11:50:38 52° S 11:57:10 10° E visible
14 Mar - 13:37:44 10° W 13:44:30 59° S 13:50:56 10° ESE visible
14 Mar - 15:32:05 10° W 15:38:10 38° SSW 15:44:06 10° SE daylight
14 Mar - 17:27:55 10° WSW 17:31:29 15° SSW 17:35:02 10° S daylight
15 Mar - 08:57:31 10° SSW 09:03:11 23° SSE 09:08:38 10° ESE night (unlit)
15 Mar - 10:49:55 10° WSW 10:56:53 47° SSE 11:03:26 10° E visible
15 Mar - 12:43:48 10° WSW 12:50:46 61° S 12:57:19 10° ESE visible
15 Mar - 14:38:07 10° W 14:44:32 46° SSW 14:50:42 10° ESE daylight
15 Mar - 16:33:15 10° WSW 16:37:56 21° SSW 16:42:33 10° SSE daylight
16 Mar - 08:04:35 10° SSW 08:09:27 18° SSE 08:14:11 10° ESE night (unlit)
16 Mar - 09:56:11 10° SW 10:03:06 41° SSE 10:09:39 10° E visible
16 Mar - 11:49:52 10° WSW 11:56:59 60° S 12:03:40 10° E visible
16 Mar - 13:44:08 10° W 13:50:51 52° S 13:57:14 10° ESE daylight
16 Mar - 15:38:55 10° W 15:44:23 27° SSW 15:49:41 10° SSE daylight
